iso_date,epoch_date,Year,Hour,Min,DOY,POS_DOY,Lat,Lon,BP,Ts,Ta,has_bp,has_ts,has_ta,BuoyID,Buoy_Type,Buoy_Owner,Logistics,Hemisphere
2020-09-05T18:00:00Z,1599328800,2020,18,0,249.75,249.75,56.334,-51.502,-999.00,10.91,-999.0,no,yes,no,300234068344270,SVPVHI,AOML,USCG_CAMPBELL,North
2020-09-05T21:00:00Z,1599339600,2020,21,0,249.875,249.875,56.363,-51.455,-999.00,10.9,-999.0,no,yes,no,300234068344270,SVPVHI,AOML,USCG_CAMPBELL,North
2020-09-06T00:00:00Z,1599350400,2020,0,0,250.0,250.0,56.391,-51.446,-999.00,10.88,-999.0,no,yes,no,300234068344270,SVPVHI,AOML,USCG_CAMPBELL,North
2020-09-06T03:00:00Z,1599361200,2020,3,0,250.125,250.125,56.425,-51.452,-999.00,10.89,-999.0,no,yes,no,300234068344270,SVPVHI,AOML,USCG_CAMPBELL,North
2020-09-06T06:00:00Z,1599372000,2020,6,0,250.25,250.25,56.47,-51.418,-999.00,10.87,-999.0,no,yes,no,300234068344270,SVPVHI,AOML,USCG_CAMPBELL,North
2020-09-06T09:00:00Z,1599382800,2020,9,0,250.375,250.375,56.506,-51.336,-999.00,10.76,-999.0,no,yes,no,300234068344270,SVPVHI,AOML,USCG_CAMPBELL,North
2020-09-06T12:00:00Z,1599393600,2020,12,0,250.5,250.5,56.513,-51.266,-999.00,10.66,-999.0,no,yes,no,300234068344270,SVPVHI,AOML,USCG_CAMPBELL,North
2020-09-06T15:00:00Z,1599404400,2020,15,0,250.625,250.625,56.512,-51.232,-999.00,10.7,-999.0,no,yes,no,300234068344270,SVPVHI,AOML,USCG_CAMPBELL,North
2020-09-06T18:00:00Z,1599415200,2020,18,0,250.75,250.75,56.531,-51.212,-999.00,10.68,-999.0,no,yes,no,300234068344270,SVPVHI,AOML,USCG_CAMPBELL,North
2020-09-06T21:00:00Z,1599426000,2020,21,0,250.875,250.875,56.562,-51.158,-999.00,10.66,-999.0,no,yes,no,300234068344270,SVPVHI,AOML,USCG_CAMPBELL,North
2020-09-07T00:00:00Z,1599436800,2020,0,0,251.0,251.0,56.574,-51.067,-999.00,10.65,-999.0,no,yes,no,300234068344270,SVPVHI,AOML,USCG_CAMPBELL,North
2020-09-07T03:00:00Z,1599447600,2020,3,0,251.125,251.125,56.556,-51.001,-999.00,10.59,-999.0,no,yes,no,300234068344270,SVPVHI,AOML,USCG_CAMPBELL,North
2020-09-07T06:00:00Z,1599458400,2020,6,0,251.25,251.25,56.545,-50.976,-999.00,10.56,-999.0,no,yes,no,300234068344270,SVPVHI,AOML,USCG_CAMPBELL,North
2020-09-07T09:00:00Z,1599469200,2020,9,0,251.375,251.375,56.567,-50.949,-999.00,10.75,-999.0,no,yes,no,300234068344270,SVPVHI,AOML,USCG_CAMPBELL,North
2020-09-07T12:00:00Z,1599480000,2020,12,0,251.5,251.5,56.581,-50.888,-999.00,10.67,-999.0,no,yes,no,300234068344270,SVPVHI,AOML,USCG_CAMPBELL,North
2020-09-07T15:00:00Z,1599490800,2020,15,0,251.625,251.625,56.559,-50.838,-999.00,10.6,-999.0,no,yes,no,300234068344270,SVPVHI,AOML,USCG_CAMPBELL,North
2020-09-07T18:00:00Z,1599501600,2020,18,0,251.75,251.75,56.54,-50.815,-999.00,10.58,-999.0,no,yes,no,300234068344270,SVPVHI,AOML,USCG_CAMPBELL,North
2020-09-07T21:00:00Z,1599512400,2020,21,0,251.875,251.875,56.547,-50.793,-999.00,10.69,-999.0,no,yes,no,300234068344270,SVPVHI,AOML,USCG_CAMPBELL,North
2020-09-08T00:00:00Z,1599523200,2020,0,0,252.0,252.0,56.56,-50.75,-999.00,10.71,-999.0,no,yes,no,300234068344270,SVPVHI,AOML,USCG_CAMPBELL,North
2020-09-08T03:00:00Z,1599534000,2020,3,0,252.125,252.125,56.569,-50.688,-999.00,10.76,-999.0,no,yes,no,300234068344270,SVPVHI,AOML,USCG_CAMPBELL,North
2020-09-08T06:00:00Z,1599544800,2020,6,0,252.25,252.25,56.571,-50.641,-999.00,10.78,-999.0,no,yes,no,300234068344270,SVPVHI,AOML,USCG_CAMPBELL,North
2020-09-08T09:00:00Z,1599555600,2020,9,0,252.375,252.375,56.591,-50.64,-999.00,10.8,-999.0,no,yes,no,300234068344270,SVPVHI,AOML,USCG_CAMPBELL,North
2020-09-08T12:00:00Z,1599566400,2020,12,0,252.5,252.5,56.634,-50.614,-999.00,10.94,-999.0,no,yes,no,300234068344270,SVPVHI,AOML,USCG_CAMPBELL,North
2020-09-08T15:00:00Z,1599577200,2020,15,0,252.625,252.625,56.673,-50.561,-999.00,11.08,-999.0,no,yes,no,300234068344270,SVPVHI,AOML,USCG_CAMPBELL,North
2020-09-08T18:00:00Z,1599588000,2020,18,0,252.75,252.75,56.698,-50.49,-999.00,11.01,-999.0,no,yes,no,300234068344270,SVPVHI,AOML,USCG_CAMPBELL,North
2020-09-08T21:00:00Z,1599598800,2020,21,0,252.875,252.875,56.722,-50.42,-999.00,10.86,-999.0,no,yes,no,300234068344270,SVPVHI,AOML,USCG_CAMPBELL,North
2020-09-09T00:00:00Z,1599609600,2020,0,0,253.0,253.0,56.744,-50.372,-999.00,10.9,-999.0,no,yes,no,300234068344270,SVPVHI,AOML,USCG_CAMPBELL,North
2020-09-09T03:00:00Z,1599620400,2020,3,0,253.125,253.125,56.767,-50.341,-999.00,10.86,-999.0,no,yes,no,300234068344270,SVPVHI,AOML,USCG_CAMPBELL,North
2020-09-09T06:00:00Z,1599631200,2020,6,0,253.25,253.25,56.796,-50.313,-999.00,10.83,-999.0,no,yes,no,300234068344270,SVPVHI,AOML,USCG_CAMPBELL,North
2020-09-09T09:00:00Z,1599642000,2020,9,0,253.375,253.375,56.823,-50.249,-999.00,10.75,-999.0,no,yes,no,300234068344270,SVPVHI,AOML,USCG_CAMPBELL,North
2020-09-09T12:00:00Z,1599652800,2020,12,0,253.5,253.5,56.843,-50.186,-999.00,10.68,-999.0,no,yes,no,300234068344270,SVPVHI,AOML,USCG_CAMPBELL,North
2020-09-09T15:00:00Z,1599663600,2020,15,0,253.625,253.625,56.853,-50.122,-999.00,10.21,-999.0,no,yes,no,300234068344270,SVPVHI,AOML,USCG_CAMPBELL,North
2020-09-09T18:00:00Z,1599674400,2020,18,0,253.75,253.75,56.85,-50.057,-999.00,9.6,-999.0,no,yes,no,300234068344270,SVPVHI,AOML,USCG_CAMPBELL,North
2020-09-09T21:00:00Z,1599685200,2020,21,0,253.875,253.875,56.837,-50.019,-999.00,9.64,-999.0,no,yes,no,300234068344270,SVPVHI,AOML,USCG_CAMPBELL,North
2020-09-10T00:00:00Z,1599696000,2020,0,0,254.0,254.0,56.826,-50.029,-999.00,9.64,-999.0,no,yes,no,300234068344270,SVPVHI,AOML,USCG_CAMPBELL,North
2020-09-10T03:00:00Z,1599706800,2020,3,0,254.125,254.125,56.842,-50.02,-999.00,9.67,-999.0,no,yes,no,300234068344270,SVPVHI,AOML,USCG_CAMPBELL,North
2020-09-10T06:00:00Z,1599717600,2020,6,0,254.25,254.25,56.843,-49.968,-999.00,9.51,-999.0,no,yes,no,300234068344270,SVPVHI,AOML,USCG_CAMPBELL,North
2020-09-10T09:00:00Z,1599728400,2020,9,0,254.375,254.375,56.826,-49.926,-999.00,9.05,-999.0,no,yes,no,300234068344270,SVPVHI,AOML,USCG_CAMPBELL,North
2020-09-10T12:00:00Z,1599739200,2020,12,0,254.5,254.5,56.813,-49.917,-999.00,8.5,-999.0,no,yes,no,300234068344270,SVPVHI,AOML,USCG_CAMPBELL,North
2020-09-10T15:00:00Z,1599750000,2020,15,0,254.625,254.625,56.814,-49.907,-999.00,8.9,-999.0,no,yes,no,300234068344270,SVPVHI,AOML,USCG_CAMPBELL,North
2020-09-10T18:00:00Z,1599760800,2020,18,0,254.75,254.75,56.816,-49.883,-999.00,9.46,-999.0,no,yes,no,300234068344270,SVPVHI,AOML,USCG_CAMPBELL,North
2020-09-10T21:00:00Z,1599771600,2020,21,0,254.875,254.875,56.808,-49.86,-999.00,9.36,-999.0,no,yes,no,300234068344270,SVPVHI,AOML,USCG_CAMPBELL,North
2020-09-11T00:00:00Z,1599782400,2020,0,0,255.0,255.0,56.8,-49.86,-999.00,9.28,-999.0,no,yes,no,300234068344270,SVPVHI,AOML,USCG_CAMPBELL,North
2020-09-11T03:00:00Z,1599793200,2020,3,0,255.125,255.125,56.8,-49.874,-999.00,9.39,-999.0,no,yes,no,300234068344270,SVPVHI,AOML,USCG_CAMPBELL,North
2020-09-11T06:00:00Z,1599804000,2020,6,0,255.25,255.25,56.803,-49.879,-999.00,9.45,-999.0,no,yes,no,300234068344270,SVPVHI,AOML,USCG_CAMPBELL,North
2020-09-11T09:00:00Z,1599814800,2020,9,0,255.375,255.375,56.797,-49.877,-999.00,9.53,-999.0,no,yes,no,300234068344270,SVPVHI,AOML,USCG_CAMPBELL,North
2020-09-11T12:00:00Z,1599825600,2020,12,0,255.5,255.5,56.788,-49.9,-999.00,9.63,-999.0,no,yes,no,300234068344270,SVPVHI,AOML,USCG_CAMPBELL,North
2020-09-11T15:00:00Z,1599836400,2020,15,0,255.625,255.625,56.789,-49.921,-999.00,9.73,-999.0,no,yes,no,300234068344270,SVPVHI,AOML,USCG_CAMPBELL,North
2020-09-11T18:00:00Z,1599847200,2020,18,0,255.75,255.75,56.788,-49.928,-999.00,9.8,-999.0,no,yes,no,300234068344270,SVPVHI,AOML,USCG_CAMPBELL,North
2020-09-11T21:00:00Z,1599858000,2020,21,0,255.875,255.875,56.775,-49.932,-999.00,9.81,-999.0,no,yes,no,300234068344270,SVPVHI,AOML,USCG_CAMPBELL,North
2020-09-12T00:00:00Z,1599868800,2020,0,0,256.0,256.0,56.768,-49.931,-999.00,9.81,-999.0,no,yes,no,300234068344270,SVPVHI,AOML,USCG_CAMPBELL,North
2020-09-12T03:00:00Z,1599879600,2020,3,0,256.125,256.125,56.758,-49.923,-999.00,9.82,-999.0,no,yes,no,300234068344270,SVPVHI,AOML,USCG_CAMPBELL,North
2020-09-12T06:00:00Z,1599890400,2020,6,0,256.25,256.25,56.746,-49.917,-999.00,9.78,-999.0,no,yes,no,300234068344270,SVPVHI,AOML,USCG_CAMPBELL,North
2020-09-12T09:00:00Z,1599901200,2020,9,0,256.375,256.375,56.736,-49.91,-999.00,9.73,-999.0,no,yes,no,300234068344270,SVPVHI,AOML,USCG_CAMPBELL,North
2020-09-12T12:00:00Z,1599912000,2020,12,0,256.5,256.5,56.727,-49.907,-999.00,9.74,-999.0,no,yes,no,300234068344270,SVPVHI,AOML,USCG_CAMPBELL,North
2020-09-12T15:00:00Z,1599922800,2020,15,0,256.625,256.625,56.727,-49.91,-999.00,9.84,-999.0,no,yes,no,300234068344270,SVPVHI,AOML,USCG_CAMPBELL,North
2020-09-12T18:00:00Z,1599933600,2020,18,0,256.75,256.75,56.738,-49.905,-999.00,9.85,-999.0,no,yes,no,300234068344270,SVPVHI,AOML,USCG_CAMPBELL,North
2020-09-12T21:00:00Z,1599944400,2020,21,0,256.875,256.875,56.756,-49.895,-999.00,9.83,-999.0,no,yes,no,300234068344270,SVPVHI,AOML,USCG_CAMPBELL,North
2020-09-13T00:00:00Z,1599955200,2020,0,0,257.0,257.0,56.762,-49.875,-999.00,9.81,-999.0,no,yes,no,300234068344270,SVPVHI,AOML,USCG_CAMPBELL,North
2020-09-13T03:00:00Z,1599966000,2020,3,0,257.125,257.125,56.757,-49.871,-999.00,9.79,-999.0,no,yes,no,300234068344270,SVPVHI,AOML,USCG_CAMPBELL,North
2020-09-13T06:00:00Z,1599976800,2020,6,0,257.25,257.25,56.753,-49.865,-999.00,9.77,-999.0,no,yes,no,300234068344270,SVPVHI,AOML,USCG_CAMPBELL,North
2020-09-13T09:00:00Z,1599987600,2020,9,0,257.375,257.375,56.749,-49.841,-999.00,9.85,-999.0,no,yes,no,300234068344270,SVPVHI,AOML,USCG_CAMPBELL,North
2020-09-13T12:00:00Z,1599998400,2020,12,0,257.5,257.5,56.726,-49.805,-999.00,9.85,-999.0,no,yes,no,300234068344270,SVPVHI,AOML,USCG_CAMPBELL,North
2020-09-13T15:00:00Z,1600009200,2020,15,0,257.625,257.625,56.706,-49.813,-999.00,9.94,-999.0,no,yes,no,300234068344270,SVPVHI,AOML,USCG_CAMPBELL,North
2020-09-13T18:00:00Z,1600020000,2020,18,0,257.75,257.75,56.704,-49.833,-999.00,9.98,-999.0,no,yes,no,300234068344270,SVPVHI,AOML,USCG_CAMPBELL,North
2020-09-13T21:00:00Z,1600030800,2020,21,0,257.875,257.875,56.715,-49.84,-999.00,9.87,-999.0,no,yes,no,300234068344270,SVPVHI,AOML,USCG_CAMPBELL,North
2020-09-14T00:00:00Z,1600041600,2020,0,0,258.0,258.0,56.73,-49.828,-999.00,9.85,-999.0,no,yes,no,300234068344270,SVPVHI,AOML,USCG_CAMPBELL,North
2020-09-14T03:00:00Z,1600052400,2020,3,0,258.125,258.125,56.74,-49.812,-999.00,9.92,-999.0,no,yes,no,300234068344270,SVPVHI,AOML,USCG_CAMPBELL,North
2020-09-14T06:00:00Z,1600063200,2020,6,0,258.25,258.25,56.762,-49.823,-999.00,9.86,-999.0,no,yes,no,300234068344270,SVPVHI,AOML,USCG_CAMPBELL,North
2020-09-14T09:00:00Z,1600074000,2020,9,0,258.375,258.375,56.807,-49.844,-999.00,9.82,-999.0,no,yes,no,300234068344270,SVPVHI,AOML,USCG_CAMPBELL,North
2020-09-14T12:00:00Z,1600084800,2020,12,0,258.5,258.5,56.861,-49.825,-999.00,9.84,-999.0,no,yes,no,300234068344270,SVPVHI,AOML,USCG_CAMPBELL,North
2020-09-14T15:00:00Z,1600095600,2020,15,0,258.625,258.625,56.899,-49.83,-999.00,9.78,-999.0,no,yes,no,300234068344270,SVPVHI,AOML,USCG_CAMPBELL,North
2020-09-14T18:00:00Z,1600106400,2020,18,0,258.75,258.75,56.947,-49.875,-999.00,9.8,-999.0,no,yes,no,300234068344270,SVPVHI,AOML,USCG_CAMPBELL,North
2020-09-14T21:00:00Z,1600117200,2020,21,0,258.875,258.875,57.003,-49.891,-999.00,9.76,-999.0,no,yes,no,300234068344270,SVPVHI,AOML,USCG_CAMPBELL,North
2020-09-15T00:00:00Z,1600128000,2020,0,0,259.0,259.0,57.052,-49.885,-999.00,9.75,-999.0,no,yes,no,300234068344270,SVPVHI,AOML,USCG_CAMPBELL,North
2020-09-15T03:00:00Z,1600138800,2020,3,0,259.125,259.125,57.099,-49.857,-999.00,9.73,-999.0,no,yes,no,300234068344270,SVPVHI,AOML,USCG_CAMPBELL,North
2020-09-15T06:00:00Z,1600149600,2020,6,0,259.25,259.25,57.132,-49.822,-999.00,9.68,-999.0,no,yes,no,300234068344270,SVPVHI,AOML,USCG_CAMPBELL,North
2020-09-15T09:00:00Z,1600160400,2020,9,0,259.375,259.375,57.175,-49.799,-999.00,9.61,-999.0,no,yes,no,300234068344270,SVPVHI,AOML,USCG_CAMPBELL,North
2020-09-15T12:00:00Z,1600171200,2020,12,0,259.5,259.5,57.227,-49.711,-999.00,9.51,-999.0,no,yes,no,300234068344270,SVPVHI,AOML,USCG_CAMPBELL,North
2020-09-15T15:00:00Z,1600182000,2020,15,0,259.625,259.625,57.248,-49.578,-999.00,9.39,-999.0,no,yes,no,300234068344270,SVPVHI,AOML,USCG_CAMPBELL,North
2020-09-15T18:00:00Z,1600192800,2020,18,0,259.75,259.75,57.249,-49.47,-999.00,9.33,-999.0,no,yes,no,300234068344270,SVPVHI,AOML,USCG_CAMPBELL,North
2020-09-15T21:00:00Z,1600203600,2020,21,0,259.875,259.875,57.259,-49.365,-999.00,9.32,-999.0,no,yes,no,300234068344270,SVPVHI,AOML,USCG_CAMPBELL,North
2020-09-16T00:00:00Z,1600214400,2020,0,0,260.0,260.0,57.257,-49.235,-999.00,9.39,-999.0,no,yes,no,300234068344270,SVPVHI,AOML,USCG_CAMPBELL,North
2020-09-16T03:00:00Z,1600225200,2020,3,0,260.125,260.125,57.234,-49.093,-999.00,9.26,-999.0,no,yes,no,300234068344270,SVPVHI,AOML,USCG_CAMPBELL,North
2020-09-16T06:00:00Z,1600236000,2020,6,0,260.25,260.25,57.2,-48.987,-999.00,9.23,-999.0,no,yes,no,300234068344270,SVPVHI,AOML,USCG_CAMPBELL,North
2020-09-16T09:00:00Z,1600246800,2020,9,0,260.375,260.375,57.17,-48.91,-999.00,9.17,-999.0,no,yes,no,300234068344270,SVPVHI,AOML,USCG_CAMPBELL,North
2020-09-16T12:00:00Z,1600257600,2020,12,0,260.5,260.5,57.143,-48.82,-999.00,9.18,-999.0,no,yes,no,300234068344270,SVPVHI,AOML,USCG_CAMPBELL,North
2020-09-16T15:00:00Z,1600268400,2020,15,0,260.625,260.625,57.106,-48.725,-999.00,8.92,-999.0,no,yes,no,300234068344270,SVPVHI,AOML,USCG_CAMPBELL,North
2020-09-16T18:00:00Z,1600279200,2020,18,0,260.75,260.75,57.069,-48.655,-999.00,8.92,-999.0,no,yes,no,300234068344270,SVPVHI,AOML,USCG_CAMPBELL,North
2020-09-16T21:00:00Z,1600290000,2020,21,0,260.875,260.875,57.044,-48.623,-999.00,8.95,-999.0,no,yes,no,300234068344270,SVPVHI,AOML,USCG_CAMPBELL,North
2020-09-17T00:00:00Z,1600300800,2020,0,0,261.0,261.0,57.033,-48.579,-999.00,8.9,-999.0,no,yes,no,300234068344270,SVPVHI,AOML,USCG_CAMPBELL,North
2020-09-17T03:00:00Z,1600311600,2020,3,0,261.125,261.125,57.022,-48.512,-999.00,8.77,-999.0,no,yes,no,300234068344270,SVPVHI,AOML,USCG_CAMPBELL,North
2020-09-17T06:00:00Z,1600322400,2020,6,0,261.25,261.25,57.013,-48.465,-999.00,8.66,-999.0,no,yes,no,300234068344270,SVPVHI,AOML,USCG_CAMPBELL,North
2020-09-17T09:00:00Z,1600333200,2020,9,0,261.375,261.375,57.016,-48.443,-999.00,8.59,-999.0,no,yes,no,300234068344270,SVPVHI,AOML,USCG_CAMPBELL,North
2020-09-17T12:00:00Z,1600344000,2020,12,0,261.5,261.5,57.028,-48.445,-999.00,8.53,-999.0,no,yes,no,300234068344270,SVPVHI,AOML,USCG_CAMPBELL,North
2020-09-17T15:00:00Z,1600354800,2020,15,0,261.625,261.625,57.062,-48.438,-999.00,8.45,-999.0,no,yes,no,300234068344270,SVPVHI,AOML,USCG_CAMPBELL,North
2020-09-17T18:00:00Z,1600365600,2020,18,0,261.75,261.75,57.102,-48.42,-999.00,8.4,-999.0,no,yes,no,300234068344270,SVPVHI,AOML,USCG_CAMPBELL,North
2020-09-17T21:00:00Z,1600376400,2020,21,0,261.875,261.875,57.131,-48.373,-999.00,8.33,-999.0,no,yes,no,300234068344270,SVPVHI,AOML,USCG_CAMPBELL,North
2020-09-18T00:00:00Z,1600387200,2020,0,0,262.0,262.0,57.129,-48.327,-999.00,8.3,-999.0,no,yes,no,300234068344270,SVPVHI,AOML,USCG_CAMPBELL,North
2020-09-18T03:00:00Z,1600398000,2020,3,0,262.125,262.125,57.123,-48.292,-999.00,8.18,-999.0,no,yes,no,300234068344270,SVPVHI,AOML,USCG_CAMPBELL,North
2020-09-18T06:00:00Z,1600408800,2020,6,0,262.25,262.25,57.129,-48.251,-999.00,8.16,-999.0,no,yes,no,300234068344270,SVPVHI,AOML,USCG_CAMPBELL,North
2020-09-18T09:00:00Z,1600419600,2020,9,0,262.375,262.375,57.151,-48.182,-999.00,8.15,-999.0,no,yes,no,300234068344270,SVPVHI,AOML,USCG_CAMPBELL,North
2020-09-18T12:00:00Z,1600430400,2020,12,0,262.5,262.5,57.169,-48.072,-999.00,8.05,-999.0,no,yes,no,300234068344270,SVPVHI,AOML,USCG_CAMPBELL,North
2020-09-18T15:00:00Z,1600441200,2020,15,0,262.625,262.625,57.174,-47.931,-999.00,7.96,-999.0,no,yes,no,300234068344270,SVPVHI,AOML,USCG_CAMPBELL,North
2020-09-18T18:00:00Z,1600452000,2020,18,0,262.75,262.75,57.162,-47.82,-999.00,7.92,-999.0,no,yes,no,300234068344270,SVPVHI,AOML,USCG_CAMPBELL,North
2020-09-18T21:00:00Z,1600462800,2020,21,0,262.875,262.875,57.159,-47.771,-999.00,7.96,-999.0,no,yes,no,300234068344270,SVPVHI,AOML,USCG_CAMPBELL,North
2020-09-19T00:00:00Z,1600473600,2020,0,0,263.0,263.0,57.168,-47.736,-999.00,7.97,-999.0,no,yes,no,300234068344270,SVPVHI,AOML,USCG_CAMPBELL,North
2020-09-19T03:00:00Z,1600484400,2020,3,0,263.125,263.125,57.182,-47.681,-999.00,7.96,-999.0,no,yes,no,300234068344270,SVPVHI,AOML,USCG_CAMPBELL,North
2020-09-19T06:00:00Z,1600495200,2020,6,0,263.25,263.25,57.194,-47.615,-999.00,7.96,-999.0,no,yes,no,300234068344270,SVPVHI,AOML,USCG_CAMPBELL,North
2020-09-19T09:00:00Z,1600506000,2020,9,0,263.375,263.375,57.192,-47.58,-999.00,7.96,-999.0,no,yes,no,300234068344270,SVPVHI,AOML,USCG_CAMPBELL,North
2020-09-19T12:00:00Z,1600516800,2020,12,0,263.5,263.5,57.193,-47.613,-999.00,8.03,-999.0,no,yes,no,300234068344270,SVPVHI,AOML,USCG_CAMPBELL,North
2020-09-19T15:00:00Z,1600527600,2020,15,0,263.625,263.625,57.214,-47.619,-999.00,8.37,-999.0,no,yes,no,300234068344270,SVPVHI,AOML,USCG_CAMPBELL,North
2020-09-19T18:00:00Z,1600538400,2020,18,0,263.75,263.75,57.224,-47.584,-999.00,8.27,-999.0,no,yes,no,300234068344270,SVPVHI,AOML,USCG_CAMPBELL,North
2020-09-19T21:00:00Z,1600549200,2020,21,0,263.875,263.875,57.209,-47.564,-999.00,8.2,-999.0,no,yes,no,300234068344270,SVPVHI,AOML,USCG_CAMPBELL,North
2020-09-20T00:00:00Z,1600560000,2020,0,0,264.0,264.0,57.184,-47.574,-999.00,8.09,-999.0,no,yes,no,300234068344270,SVPVHI,AOML,USCG_CAMPBELL,North
2020-09-20T03:00:00Z,1600570800,2020,3,0,264.125,264.125,57.164,-47.575,-999.00,8.02,-999.0,no,yes,no,300234068344270,SVPVHI,AOML,USCG_CAMPBELL,North
2020-09-20T06:00:00Z,1600581600,2020,6,0,264.25,264.25,57.155,-47.543,-999.00,8.0,-999.0,no,yes,no,300234068344270,SVPVHI,AOML,USCG_CAMPBELL,North
2020-09-20T09:00:00Z,1600592400,2020,9,0,264.375,264.375,57.153,-47.509,-999.00,8.0,-999.0,no,yes,no,300234068344270,SVPVHI,AOML,USCG_CAMPBELL,North
2020-09-20T12:00:00Z,1600603200,2020,12,0,264.5,264.5,57.141,-47.468,-999.00,7.87,-999.0,no,yes,no,300234068344270,SVPVHI,AOML,USCG_CAMPBELL,North
2020-09-20T15:00:00Z,1600614000,2020,15,0,264.625,264.625,57.113,-47.431,-999.00,7.88,-999.0,no,yes,no,300234068344270,SVPVHI,AOML,USCG_CAMPBELL,North
2020-09-20T18:00:00Z,1600624800,2020,18,0,264.75,264.75,57.102,-47.423,-999.00,7.89,-999.0,no,yes,no,300234068344270,SVPVHI,AOML,USCG_CAMPBELL,North
2020-09-20T21:00:00Z,1600635600,2020,21,0,264.875,264.875,57.115,-47.402,-999.00,7.85,-999.0,no,yes,no,300234068344270,SVPVHI,AOML,USCG_CAMPBELL,North
2020-09-21T00:00:00Z,1600646400,2020,0,0,265.0,265.0,57.121,-47.349,-999.00,7.82,-999.0,no,yes,no,300234068344270,SVPVHI,AOML,USCG_CAMPBELL,North
2020-09-21T03:00:00Z,1600657200,2020,3,0,265.125,265.125,57.11,-47.297,-999.00,7.73,-999.0,no,yes,no,300234068344270,SVPVHI,AOML,USCG_CAMPBELL,North
2020-09-21T06:00:00Z,1600668000,2020,6,0,265.25,265.25,57.097,-47.266,-999.00,7.67,-999.0,no,yes,no,300234068344270,SVPVHI,AOML,USCG_CAMPBELL,North
2020-09-21T09:00:00Z,1600678800,2020,9,0,265.375,265.375,57.104,-47.267,-999.00,7.65,-999.0,no,yes,no,300234068344270,SVPVHI,AOML,USCG_CAMPBELL,North
2020-09-21T12:00:00Z,1600689600,2020,12,0,265.5,265.5,57.134,-47.245,-999.00,7.65,-999.0,no,yes,no,300234068344270,SVPVHI,AOML,USCG_CAMPBELL,North
2020-09-21T15:00:00Z,1600700400,2020,15,0,265.625,265.625,57.133,-47.174,-999.00,7.7,-999.0,no,yes,no,300234068344270,SVPVHI,AOML,USCG_CAMPBELL,North
2020-09-21T18:00:00Z,1600711200,2020,18,0,265.75,265.75,57.094,-47.133,-999.00,7.72,-999.0,no,yes,no,300234068344270,SVPVHI,AOML,USCG_CAMPBELL,North
2020-09-21T21:00:00Z,1600722000,2020,21,0,265.875,265.875,57.073,-47.157,-999.00,7.68,-999.0,no,yes,no,300234068344270,SVPVHI,AOML,USCG_CAMPBELL,North
2020-09-22T00:00:00Z,1600732800,2020,0,0,266.0,266.0,57.094,-47.164,-999.00,7.66,-999.0,no,yes,no,300234068344270,SVPVHI,AOML,USCG_CAMPBELL,North
2020-09-22T03:00:00Z,1600743600,2020,3,0,266.125,266.125,57.122,-47.118,-999.00,7.64,-999.0,no,yes,no,300234068344270,SVPVHI,AOML,USCG_CAMPBELL,North
2020-09-22T06:00:00Z,1600754400,2020,6,0,266.25,266.25,57.118,-47.041,-999.00,7.67,-999.0,no,yes,no,300234068344270,SVPVHI,AOML,USCG_CAMPBELL,North
2020-09-22T09:00:00Z,1600765200,2020,9,0,266.375,266.375,57.086,-47.005,-999.00,7.65,-999.0,no,yes,no,300234068344270,SVPVHI,AOML,USCG_CAMPBELL,North
2020-09-22T12:00:00Z,1600776000,2020,12,0,266.5,266.5,57.07,-47.016,-999.00,7.65,-999.0,no,yes,no,300234068344270,SVPVHI,AOML,USCG_CAMPBELL,North
2020-09-22T15:00:00Z,1600786800,2020,15,0,266.625,266.625,57.068,-47.002,-999.00,7.7,-999.0,no,yes,no,300234068344270,SVPVHI,AOML,USCG_CAMPBELL,North
2020-09-22T18:00:00Z,1600797600,2020,18,0,266.75,266.75,57.059,-46.942,-999.00,7.71,-999.0,no,yes,no,300234068344270,SVPVHI,AOML,USCG_CAMPBELL,North
2020-09-22T21:00:00Z,1600808400,2020,21,0,266.875,266.875,57.033,-46.904,-999.00,8.07,-999.0,no,yes,no,300234068344270,SVPVHI,AOML,USCG_CAMPBELL,North
2020-09-23T00:00:00Z,1600819200,2020,0,0,267.0,267.0,57.02,-46.934,-999.00,8.3,-999.0,no,yes,no,300234068344270,SVPVHI,AOML,USCG_CAMPBELL,North
2020-09-23T03:00:00Z,1600830000,2020,3,0,267.125,267.125,57.014,-46.964,-999.00,8.39,-999.0,no,yes,no,300234068344270,SVPVHI,AOML,USCG_CAMPBELL,North
2020-09-23T06:00:00Z,1600840800,2020,6,0,267.25,267.25,57.031,-46.935,-999.00,8.72,-999.0,no,yes,no,300234068344270,SVPVHI,AOML,USCG_CAMPBELL,North
2020-09-23T09:00:00Z,1600851600,2020,9,0,267.375,267.375,57.053,-46.891,-999.00,8.83,-999.0,no,yes,no,300234068344270,SVPVHI,AOML,USCG_CAMPBELL,North
2020-09-23T12:00:00Z,1600862400,2020,12,0,267.5,267.5,57.063,-46.892,-999.00,8.21,-999.0,no,yes,no,300234068344270,SVPVHI,AOML,USCG_CAMPBELL,North
2020-09-23T15:00:00Z,1600873200,2020,15,0,267.625,267.625,57.07,-46.932,-999.00,8.2,-999.0,no,yes,no,300234068344270,SVPVHI,AOML,USCG_CAMPBELL,North
2020-09-23T18:00:00Z,1600884000,2020,18,0,267.75,267.75,57.092,-46.968,-999.00,7.74,-999.0,no,yes,no,300234068344270,SVPVHI,AOML,USCG_CAMPBELL,North
2020-09-23T21:00:00Z,1600894800,2020,21,0,267.875,267.875,57.11,-46.968,-999.00,7.77,-999.0,no,yes,no,300234068344270,SVPVHI,AOML,USCG_CAMPBELL,North
2020-09-24T00:00:00Z,1600905600,2020,0,0,268.0,268.0,57.122,-46.968,-999.00,7.82,-999.0,no,yes,no,300234068344270,SVPVHI,AOML,USCG_CAMPBELL,North
2020-09-24T03:00:00Z,1600916400,2020,3,0,268.125,268.125,57.13,-47.024,-999.00,7.81,-999.0,no,yes,no,300234068344270,SVPVHI,AOML,USCG_CAMPBELL,North
2020-09-24T06:00:00Z,1600927200,2020,6,0,268.25,268.25,57.144,-47.097,-999.00,7.8,-999.0,no,yes,no,300234068344270,SVPVHI,AOML,USCG_CAMPBELL,North
2020-09-24T09:00:00Z,1600938000,2020,9,0,268.375,268.375,57.165,-47.168,-999.00,7.8,-999.0,no,yes,no,300234068344270,SVPVHI,AOML,USCG_CAMPBELL,North
2020-09-24T12:00:00Z,1600948800,2020,12,0,268.5,268.5,57.186,-47.192,-999.00,7.81,-999.0,no,yes,no,300234068344270,SVPVHI,AOML,USCG_CAMPBELL,North
2020-09-24T15:00:00Z,1600959600,2020,15,0,268.625,268.625,57.196,-47.188,-999.00,7.84,-999.0,no,yes,no,300234068344270,SVPVHI,AOML,USCG_CAMPBELL,North
2020-09-24T18:00:00Z,1600970400,2020,18,0,268.75,268.75,57.191,-47.21,-999.00,7.86,-999.0,no,yes,no,300234068344270,SVPVHI,AOML,USCG_CAMPBELL,North
2020-09-24T21:00:00Z,1600981200,2020,21,0,268.875,268.875,57.207,-47.238,-999.00,7.87,-999.0,no,yes,no,300234068344270,SVPVHI,AOML,USCG_CAMPBELL,North
2020-09-25T00:00:00Z,1600992000,2020,0,0,269.0,269.0,57.24,-47.214,-999.00,7.9,-999.0,no,yes,no,300234068344270,SVPVHI,AOML,USCG_CAMPBELL,North
2020-09-25T03:00:00Z,1601002800,2020,3,0,269.125,269.125,57.257,-47.131,-999.00,7.88,-999.0,no,yes,no,300234068344270,SVPVHI,AOML,USCG_CAMPBELL,North
2020-09-25T06:00:00Z,1601013600,2020,6,0,269.25,269.25,57.239,-47.041,-999.00,7.72,-999.0,no,yes,no,300234068344270,SVPVHI,AOML,USCG_CAMPBELL,North
2020-09-25T09:00:00Z,1601024400,2020,9,0,269.375,269.375,57.215,-47.025,-999.00,7.65,-999.0,no,yes,no,300234068344270,SVPVHI,AOML,USCG_CAMPBELL,North
2020-09-25T12:00:00Z,1601035200,2020,12,0,269.5,269.5,57.235,-47.06,-999.00,7.66,-999.0,no,yes,no,300234068344270,SVPVHI,AOML,USCG_CAMPBELL,North
2020-09-25T15:00:00Z,1601046000,2020,15,0,269.625,269.625,57.285,-47.034,-999.00,7.72,-999.0,no,yes,no,300234068344270,SVPVHI,AOML,USCG_CAMPBELL,North